Regional Weather Roundup
Issued by NWS

Home | Current Version | Previous Version | Text Only | Print | Product List | Glossary Off
Versions: 1 2 3 4 5 6 7 8 9 10 11 12 13 14 15 16 17 18 19 20 21 22 23 24 25 26 27 28

000
ASUS45 KCYS 251410
RWRWY

WYOMING REGIONAL WEATHER ROUNDUP
NATIONAL WEATHER SERVICE CHEYENNE WY
800 AM MDT SAT OCT 25 2014

NOTE:  "FAIR" INDICATES FEW OR NO CLOUDS BELOW 12,000 FEET
WITH NO SIGNIFICANT WEATHER AND/OR OBSTRUCTIONS TO VISIBILITY.

WYZ001-251500-
YELLOWSTONE NATIONAL PARK

CITY           SKY/WX    TMP DP  RH WIND       PRES   REMARKS
LK YELLOWSTONE   N/A     26  23  88 NW3       30.23
W YELLOWSTONE  NOT AVBL

$$
WYZ002>013-054>058-071-098>099-251500-
NORTHERN WYOMING

CITY           SKY/WX    TMP DP  RH WIND       PRES   REMARKS
JACKSON        CLEAR     25  25 100 CALM      30.21S
CODY           CLEAR     37  27  65 S7        30.08  WCI  32
GREYBULL       PTCLDY    32  28  85 CALM      30.08F
WORLAND        CLEAR     30  27  88 S7        30.09R WCI  23
SHERIDAN       PTCLDY    29  24  82 SW3       30.07F
BUFFALO        CLEAR     39  30  70 SW7       30.10F WCI  34
GILLETTE       CLEAR     41  33  73 S17       30.12S
HULETT         FAIR      37  30  75 CALM      30.14
NEWCASTLE      FAIR      36  32  87 CALM      30.19

$$
WYZ014>020-022>026-101>103-251500-
CENTRAL WYOMING

CITY           SKY/WX    TMP DP  RH WIND       PRES   REMARKS
BIG PINEY      PTCLDY    24  18  77 NW6       30.27S WCI  17
PINEDALE       SUNNY     23  21  93 W7        30.27  WCI  15
DUBOIS         FAIR      36  19  51 CALM      30.21S
LANDER         CLEAR     41  21  44 W6        30.14F
RIVERTON       CLEAR     35  23  61 N5        30.15F WCI  31
CASPER         CLEAR     49  27  42 SW10      30.17F
DOUGLAS        CLEAR     35  23  61 NE3       30.19R

$$
WYZ021-027>030-104>119-251500-
SOUTHERN WYOMING

CITY           SKY/WX    TMP DP  RH WIND       PRES   REMARKS
EVANSTON       CLEAR     49  20  31 SE6       30.23F
KEMMERER       MOSUNNY   32  25  74 N12       30.26S WCI  23
FORT BRIDGER   FAIR      43  19  38 N3        30.27S
ROCK SPRINGS   PTCLDY    39  26  59 CALM      30.24F
DIXON          FAIR      31  27  85 CALM      30.32S
RAWLINS        PTCLDY    40  24  53 E5        30.28F
SARATOGA       FAIR      41  21  45 SE8       30.32S
LARAMIE        CLEAR     37  19  48 SW10      30.32S WCI  30
CHEYENNE       CLEAR     41  23  48 W10       30.25F
TORRINGTON     CLEAR     37  31  78 NW6       30.18R WCI  32
PINE BLUFFS    FAIR      37  30  75 W6        30.22S WCI  33

$$



USA.gov is the U.S. government's official web portal to all federal, state and local government web resources and services.